Notices

What's New in latest Release from April 7th, 2021:

- Updated Glossary, including Speed of Maximum Gust, and Total Hourly Precipitation

- Updated national and regional climate services offices contacts and prices information

- Addition of station inventory lists for 1981-2010, 1971-2000, and 1961-1990 Normals.

If you haven't already, please take our survey and provide feedback about our website: https://eccc.sondage-survey.ca/f/LanguageSelection.aspx?s=442ca660-fcf1-47c0-95a9-59707d6fd709

Hourly Data Report for October 13, 2020

MUSKOKA
ONTARIO
Current Station Operator: NAVCAN

44°58'29.000" N
79°18'12.000" W
281.90 m
6115529
71532
YQA

Download Data

Hourly Data (October 2020)
Hourly Data Report for October 13, 2020
TIME
LST
Temp Definition
°C
Dew Point Definition
°C
Rel Hum Definition
%
Precip. Amount Definition
mm

Wind Dir Definition
10's deg

Wind Spd Definition
km/h
Visibility Definition
km
Stn Press Definition
kPa
Hmdx Definition


Wind Chill Definition


Weather Definition


00:00 10.7 9.8 94 0.0 12 18 16.1 97.47     Rain
01:00 10.8 9.7 93 0.0 15 24 16.1 97.47     LegendNANA
02:00 10.7 9.5 92 0.0 15 21 16.1 97.47     LegendNANA
03:00 10.3 9.7 96 2.0 14 21 11.3 97.44     Rain
04:00 10.5 10.1 97 2.5 17 18 6.4 97.57     Rain,Fog
05:00 10.0 9.2 95 0.8 24 11 16.1 97.65     Rain
06:00 9.7 8.9 95 0.0 28 17 6.4 97.71     Fog
07:00 9.6 8.2 91 0.0 27 8 16.1 97.76     LegendNANA
08:00 9.8 7.7 86 0.0 29 11 16.1 97.86     LegendNANA
09:00 10.4 7.5 82 0.0 29 17 16.1 97.96     LegendNANA
10:00 12.4 7.2 70 0.0 30 15 16.1 98.00     LegendNANA
11:00 11.8 6.3 69 0.0 30 21 16.1 98.03     LegendNANA
12:00 13.6 5.8 59 0.0 28 17 16.1 98.07     LegendNANA
13:00 14.0 5.7 57 0.0 27 17 16.1 98.02     LegendNANA
14:00 14.0 5.7 57 0.0 25 15 16.1 97.98     LegendNANA
15:00 13.8 2.6 47 0.0 29 22 16.1 98.00     LegendNANA
16:00 13.1 4.2 55 0.0 24 13 16.1 98.02     LegendNANA
17:00 12.4 5.0 60 0.0 24 8 16.1 97.98     LegendNANA
18:00 8.0 5.8 86 0.0   0 16.1 97.95     LegendNANA
19:00 6.1 5.4 95 0.0   0 16.1 97.87     LegendNANA
20:00 6.6 5.8 94 0.0 18 4 16.1 97.89     LegendNANA
21:00 6.5 5.5 93 0.0 14 5 16.1 97.89     LegendNANA
22:00 9.1 5.9 80 0.0 LegendMM 11 16.1 97.97     Rain
23:00 8.2 7.8 97 1.2 13 8 16.1 97.84     LegendNANA

Notes on Data Quality.

Legend

  • E = Estimated
  • M = Missing
  • NA = Not Available*
  • [empty] = Indicates an unobserved value
Date modified: